Content
SEND FEEDBACK

Daily
Averages
Monthly
Summary
South Korea

CHEONGJU, SOUTH KOREA


Home > Asia > South Korea
Elevation: 197 feet     Latitude: 36 37N     Longitude: 127 25E

WEATHER
 
SELECT A DAY
Number of Records: 177,943;   Date Range: 4/22/97 - 9/21/14
 
SHARE

PRINT THIS DATA

[ ← Previous Day ]
WEATHER ALMANAC - JANUARY 31, 2013
[ Next Day → ]
[ °C ]   °F
Weather ElementAverageHighLow
Temperature41.3 °F55.4 °F (3:00 pm)26.6 °F (7:00 am)
Dewpoint32.3 °F37.4 °F (1:00 pm)24.8 °F (8:00 am)
Humidity74 %100 % (2:00 am)44 % (3:00 pm)
Barometer30.42 in30.48 in (8:00 am)30.30 in (11:00 pm)
Wind Speed2.7 mph5.8 mph (6:00 pm)
Weather ElementAverage
Visibility2.8 mi
Wind DirectionESE (108.5 °)

Weather ElementTotal
Precipitation---
Heating Degree Days24 (Base 65)
Averaged from 26 records on January 31, 2013
WEATHER CONDITIONS BREAKOUT
WIND DIRECTION BREAKOUT
WEATHER BY HOUR - JANUARY 31, 2013
[ °C ]   °F
Local TimeTemperatureDewpointHumidityBarometerVisibilityWind DirectionWind SpeedGust SpeedPrecipitationEventsConditions
1:00 AM33.8 °F32.0 °F93 %30.42 inSSE (150°)1.2 mphMist
2:00 AM28.4 °F28.4 °F100 %30.44 inEast (100°)2.3 mphScattered Clouds
3:00 AM30.2 °F30.2 °F100 %30.46 in1.7 miEast (80°)2.3 mphScattered Clouds
4:00 AM28.4 °F28.4 °F100 %30.46 in1.7 miESE (110°)2.3 mphPartly Cloudy
5:00 AM28.4 °F28.4 °F100 %30.46 in1.0 miNE (50°)3.5 mphPartly Cloudy
6:00 AM28.4 °F26.6 °F93 %30.45 in0.9 miEast (100°)2.3 mphPartly Cloudy
7:00 AM26.6 °F26.6 °F100 %30.45 in0.9 miEast (90°)2.3 mphPartly Cloudy
8:00 AM26.6 °F24.8 °F93 %30.48 in0.7 miNE (50°)1.2 mphScattered Clouds
9:00 AM32.0 °F32.0 °F100 %30.48 in0.7 miNE (50°)2.3 mphScattered Clouds
10:00 AM35.6 °F33.8 °F93 %30.48 in0.7 miENE (60°)2.3 mphPartly Cloudy
10:40 AM39.2 °F33.8 °F81 %30.48 in1.0 miCalmPartly Cloudy
11:00 AM41.0 °F35.6 °F81 %30.48 in1.2 miNE (50°)3.5 mphPartly Cloudy
11:50 AM46.4 °F35.6 °F66 %30.45 inNNW (340°)2.3 mphPartly Cloudy
12:00 PM46.4 °F35.6 °F66 %30.45 inNNE (20°)2.3 mphHaze
12:53 PM50.0 °F35.6 °F58 %30.42 inEast (90°)2.3 mphHaze
1:00 PM51.8 °F37.4 °F58 %30.42 inESE (120°)2.3 mphHaze
2:00 PM53.6 °F33.8 °F47 %30.39 in3.7 miWest (270°)2.3 mph
3:00 PM55.4 °F33.8 °F44 %30.39 in3.7 miNW (310°)3.5 mph
4:00 PM55.4 °F33.8 °F44 %30.36 in3.7 miNNE (20°)4.6 mph
5:00 PM53.6 °F33.8 °F47 %30.36 in5.0 miENE (70°)3.5 mph
6:00 PM48.2 °F33.8 °F58 %30.36 in5.0 miEast (80°)5.8 mph
7:00 PM50.0 °F32.0 °F50 %30.36 in5.0 miSSE (150°)4.6 mph
8:00 PM48.2 °F33.8 °F58 %30.36 in5.0 miESE (120°)2.3 mph
9:00 PM46.4 °F33.8 °F62 %30.36 in5.0 miENE (60°)3.5 mph
10:00 PM46.4 °F33.8 °F62 %30.33 in5.0 miSouth (190°)1.2 mph
11:00 PM42.8 °F33.8 °F70 %30.30 in5.0 miEast (90°)3.5 mph
Hourly data recorded from RKTU, located miles away from Cheongju, South Korea







STORIES FROM OUR PARTNERS